Worcester, MA

11:12 PM EST on February 21, 2017 (GMT -0500)
Worcester Regional

Weather History for KORH - July, 2013

Change the Weather History Date:

Wednesday, July 31, 2013

  Actual Average Record
Temperature  
Mean Temperature 69 °F 71 °F  
Max Temperature 78 °F 79 °F 95 °F (1917)
Min Temperature 59 °F 62 °F 45 °F (1932)
Degree Days  
Heating Degree Days 0 0  
Month to date heating degree days 7 9  
Since 1 June heating degree days 74 97  
Since 1 July heating degree days 7 14  
Cooling Degree Days 4 6  
Month to date cooling degree days 298 175  
Year to date cooling degree days 425 281  
Since 1 June cooling degree days 401 259  
Growing Degree Days 18 (Base 50)    
Moisture  
Dew Point 56 °F    
Average Humidity 62    
Maximum Humidity 87    
Minimum Humidity 36    
Precipitation  
Precipitation 0.00 in 0.15 in 3.87 in (1985)
Month to date precipitation 2.97 4.23  
Year to date precipitation 29.84 27.65  
Snow  
Snow 0.00 in 0.00 in T in (1934)
Month to date snowfall 0.0 0.0  
Since 1 June snowfall 0.0 0.0  
Since 1 July snowfall 0.0 0.0  
Snow Depth -    
Sea Level Pressure  
Sea Level Pressure 30.11 in    
Wind  
Wind Speed 5 mph (West)    
Max Wind Speed 12 mph    
Max Gust Speed 15 mph    
Visibility 10 miles    
Events      
T = Trace of Precipitation, MM = Missing Value Source: NWS Daily Summary

Daily Weather History Graph

Daily Weather History Graph

Search for Another Location

Airport or City:

Trip Planner

Search our weather history database for the weather conditions in past years. The results will help you decide how hot, cold, wet, or windy it might be!

Date:

Astronomy

Jul. 31, 2013 Rise Set
Actual Time 5:39 AM EDT 8:07 PM EDT
Civil Twilight 5:07 AM EDT 8:39 PM EDT
Nautical Twilight 4:28 AM EDT 9:18 PM EDT
Astronomical Twilight 3:43 AM EDT 10:02 PM EDT
Moon 12:33 AM EDT (7/31) 3:21 PM EDT (7/31)
Length of Visible Light 15h 31m
Length of Day
14h 28m
Waning Crescent, 32% of the Moon is Illuminated
Jul 31
Waning Crescent
Aug 6
New
Aug 14
First Quarter
Aug 20
Full
Aug 28
Last Quarter

Hourly Weather History & Observations

Time (EDT) Temp. Dew Point Humidity Pressure Visibility Wind Dir Wind Speed Gust Speed Precip Events Conditions
12:54 AM 64.0 °F 55.9 °F 75% 30.11 in 10.0 mi WNW 12.7 mph - N/A   Clear
1:54 AM 64.0 °F 55.0 °F 73% 30.11 in 10.0 mi West 8.1 mph - N/A   Clear
2:54 AM 61.0 °F 55.9 °F 83% 30.11 in 10.0 mi West 4.6 mph - N/A   Clear
3:54 AM 60.1 °F 55.0 °F 83% 30.12 in 10.0 mi West 5.8 mph - N/A   Clear
4:54 AM 60.1 °F 55.0 °F 83% 30.12 in 10.0 mi WNW 8.1 mph - N/A   Clear
5:54 AM 60.1 °F 55.0 °F 83% 30.14 in 10.0 mi WNW 6.9 mph - N/A   Clear
6:54 AM 62.1 °F 55.9 °F 80% 30.16 in 10.0 mi NW 4.6 mph - N/A   Clear
7:54 AM 66.9 °F 55.9 °F 68% 30.16 in 10.0 mi NNW 4.6 mph - N/A   Clear
8:54 AM 69.1 °F 55.9 °F 63% 30.16 in 10.0 mi North 6.9 mph - N/A   Clear
9:54 AM 72.0 °F 54.0 °F 53% 30.16 in 10.0 mi North 6.9 mph - N/A   Clear
10:54 AM 73.0 °F 54.0 °F 51% 30.14 in 10.0 mi Calm Calm - N/A   Clear
11:54 AM 75.0 °F 46.9 °F 37% 30.14 in 10.0 mi Calm Calm - N/A   Clear
12:54 PM 75.0 °F 53.1 °F 46% 30.12 in 10.0 mi SW 4.6 mph - N/A   Mostly Cloudy
1:54 PM 73.9 °F 54.0 °F 50% 30.12 in 10.0 mi Calm Calm - N/A   Mostly Cloudy
2:54 PM 75.9 °F 53.1 °F 45% 30.11 in 10.0 mi WSW 8.1 mph - N/A   Overcast
3:54 PM 77.0 °F 53.1 °F 43% 30.10 in 10.0 mi West 5.8 mph - N/A   Clear
4:54 PM 75.9 °F 53.1 °F 45% 30.09 in 10.0 mi West 9.2 mph - N/A   Clear
5:54 PM 75.9 °F 55.0 °F 48% 30.09 in 10.0 mi WSW 5.8 mph - N/A   Clear
6:54 PM 73.9 °F 55.9 °F 53% 30.08 in 10.0 mi SW 4.6 mph - N/A   Clear
7:54 PM 71.1 °F 60.1 °F 68% 30.07 in 10.0 mi WSW 3.5 mph - N/A   Clear
8:54 PM 68.0 °F 59.0 °F 73% 30.07 in 10.0 mi SW 4.6 mph - N/A   Clear
9:54 PM 66.0 °F 60.1 °F 81% 30.07 in 10.0 mi SW 4.6 mph - N/A   Clear
10:54 PM 64.0 °F 61.0 °F 90% 30.07 in 10.0 mi SW 5.8 mph - N/A   Clear
11:54 PM 64.0 °F 61.0 °F 90% 30.07 in 10.0 mi WSW 8.1 mph - N/A   Clear